LANDSAT 5 1 14780U 84021A 12137.22414189 .00000268 00000-0 69418-4 0 9550 2 14780 98.1470 203.3118 0003335 41.9211 318.2254 14.57154726500339 SPOT 2 1 20436U 90005A 12137.12950237 .00000728 00000-0 13119-3 0 3788 2 20436 98.6718 269.2197 0151987 254.3293 104.1091 14.62926601161024 ERS-2 1 23560U 95021A 12137.20385008 .00003356 00000-0 25418-3 0 3458 2 23560 98.5062 244.1808 0005731 62.1883 297.9921 15.03081217894568 RADARSAT-1 1 23710U 95059A 12137.21201736 .00000198 00000-0 93524-4 0 5370 2 23710 98.5795 144.0459 0001166 83.2638 47.2681 14.29978910862878 TOMS EP 1 23940U 96037A 12135.53958522 .00000507 00000-0 13295-3 0 9461 2 23940 97.9187 329.1765 0028294 303.8778 55.9715 14.52831718843631 MIDORI (ADEOS) 1 24277U 96046A 12136.87211695 .00000104 00000-0 58454-4 0 9376 2 24277 98.5094 81.9718 0001882 41.0317 319.1004 14.28774246820809 ORBVIEW 2 (SEASTAR) 1 24883U 97037A 12136.39341702 .00000274 00000-0 11709-3 0 7311 2 24883 98.4137 255.8777 0001793 190.2101 169.9044 14.32449258785706 IRS-1D 1 24971U 97057A 12137.10197666 .00000145 00000-0 66665-4 0 6003 2 24971 98.1944 132.1127 0054200 359.4806 0.6319 14.33181125765201 TRMM 1 25063U 97074A 12137.14196747 .00018300 00000-0 25316-3 0 9774 2 25063 34.9612 141.0502 0000520 304.2375 55.8337 15.56166076825927 SPOT 4 1 25260U 98017A 12137.20750161 .00000088 00000-0 61039-4 0 4248 2 25260 98.5647 199.7050 0001689 71.8116 288.3267 14.20101599733343 FASAT B 1 25395U 98043B 12136.96906254 .00000089 00000-0 56050-4 0 3320 2 25395 98.3220 125.8709 0002782 348.0038 12.1074 14.24547338719886 TECHSAT 1B (GO-32) 1 25397U 98043D 12136.98905732 .00000150 00000-0 84562-4 0 7753 2 25397 98.3599 117.2875 0001762 50.0996 310.0370 14.23273940719441 LANDSAT 7 1 25682U 99020A 12137.06027657 .00000557 00000-0 13372-3 0 795 2 25682 98.2029 205.7447 0000348 121.3772 238.7468 14.57097374696008 KITSAT 3 1 25756U 99029A 12137.23691448 .00000191 00000-0 58054-4 0 8148 2 25756 98.5489 13.6859 0014193 168.4244 191.7280 14.52805564687637 DLR-TUBSAT 1 25757U 99029B 12137.11239198 .00000026 00000-0 18634-4 0 11 2 25757 98.5950 5.8519 0013982 209.6351 150.4053 14.50967894686989 IRS-P4 (OCEANSAT 1) 1 25758U 99029C 12136.81421887 .00000335 00000-0 95566-4 0 535 2 25758 98.2554 228.6262 0000603 181.0728 179.0465 14.51140874687093 QUIKSCAT 1 25789U 99034A 12136.47665567 .00000045 00000-0 36537-4 0 3008 2 25789 98.6229 326.0659 0001419 64.6682 295.4647 14.26907225672085 IKONOS 2 1 25919U 99051A 12137.24579720 .00000389 00000-0 82451-4 0 6980 2 25919 98.1108 212.0495 0001303 74.7118 285.4256 14.64443324675794 CBERS 1 (ZY 1A) 1 25940U 99057A 12136.96138715 .00000172 00000-0 75537-4 0 1794 2 25940 98.2601 103.1969 0005751 132.2298 227.9374 14.34686106659320 TERRA 1 25994U 99068A 12137.21329882 .00000341 00000-0 85783-4 0 51 2 25994 98.2075 211.7671 0001297 88.7100 271.4270 14.57119689660107 ARIRANG 1 (KOMPSAT-1) 1 26032U 99070A 12137.21906985 .00000549 00000-0 10757-3 0 9634 2 26032 97.7825 345.9098 0006425 94.4962 265.6958 14.66323082663362 EO-1 1 26619U 00075A 12137.18465387 .00000351 00000-0 78186-4 0 3562 2 26619 98.0796 202.7755 0009625 204.3711 155.7063 14.62609775611757 SAC-C 1 26620U 00075B 12136.89522587 .00000429 00000-0 10514-3 0 6027 2 26620 97.8886 127.2880 0000871 77.3992 282.7313 14.56882889610524 EROS A1 1 26631U 00079A 12137.15246885 .00006218 00000-0 42020-3 0 1616 2 26631 97.6526 207.2142 0011830 326.5188 119.4446 15.06875450635609 QUICKBIRD 2 1 26953U 01047A 12137.16606017 .00009004 00000-0 26553-3 0 4956 2 26953 97.2226 202.2223 0001725 80.7734 359.4611 15.35226634594017 TES 1 26957U 01049A 12137.23252920 .00028020 00000-0 21130-2 0 4516 2 26957 97.7361 212.6146 0044156 208.7433 151.1195 15.01619922578811 JASON 1 1 26997U 01055A 12135.86715431 -.00000038 00000-0 10000-3 0 5005 2 26997 66.0420 23.1598 0007158 261.6516 98.3684 12.83923283488154 METEOR-3M 1 27001U 01056A 12137.13844691 -.00000036 00000-0 70707-5 0 977 2 27001 99.1943 319.9342 0013918 144.4846 215.7229 13.68735974521066 BADR-B 1 27003U 01056C 12137.08223434 -.00000028 00000-0 15738-4 0 792 2 27003 99.1569 326.1389 0020593 140.0659 220.2005 13.70133529521642 MAROC-TUBSAT 1 27004U 01056D 12135.95149754 .00000024 00000-0 74373-4 0 9074 2 27004 99.1565 324.1681 0019981 143.7399 216.5107 13.70053508521450 SPOT 5 1 27421U 02021A 12137.20629846 .00000012 00000-0 25807-4 0 3399 2 27421 98.6543 209.3830 0001064 107.1114 345.2229 14.20068323520175 AQUA 1 27424U 02022A 12136.88977964 .00000621 00000-0 14786-3 0 3022 2 27424 98.1932 77.9532 0001710 61.3003 298.8393 14.57127348533665 HAIYANG-1A 1 27430U 02024A 12135.97791472 .00000127 00000-0 65450-4 0 9525 2 27430 98.3322 180.7307 0008710 174.0403 186.0886 14.30021783521943 ALSAT 1 1 27559U 02054A 12136.57626156 .00000601 00000-0 10793-3 0 4827 2 27559 97.7988 347.7783 0022768 197.6550 162.3865 14.69914539505894 MIDORI II (ADEOS-II) 1 27597U 02056A 12137.15990989 .00000138 00000-0 74341-4 0 7271 2 27597 98.3294 173.7289 0001900 53.2865 306.8489 14.26413986490457 IRS-P6 (RESOURCESAT-1) 1 28051U 03046A 12137.05762325 .00000084 00000-0 58704-4 0 9230 2 28051 98.7932 209.8977 0002749 312.1666 47.9277 14.21590422445273 CBERS 2 (ZY 1B) 1 28057U 03049A 12137.05805516 .00000095 00000-0 47408-4 0 3706 2 28057 98.1604 152.9335 0002193 58.3658 301.7749 14.35041769448973 TANSUO 1 (TS 1) 1 28220U 04012A 12136.90464475 .00001784 00000-0 18755-3 0 1837 2 28220 97.4612 128.6522 0009952 255.9740 104.0370 14.90577920438721 FORMOSAT-2 (ROCSAT 2) 1 28254U 04018A 12137.21193454 -.00000021 00000-0 15089-4 0 9796 2 28254 98.9694 201.2249 0001588 153.8910 296.2267 14.00781183408488 AURA 1 28376U 04026A 12135.65929538 .00000557 00000-0 13357-3 0 4586 2 28376 98.1920 78.9217 0001410 72.4066 287.7275 14.57119855416535 PARASOL 1 28498U 04049G 12136.89144430 .00000544 00000-0 12311-3 0 3206 2 28498 98.4069 98.2621 0001708 96.9245 263.2169 14.60167583394138 IRS-P5 (CARTOSAT-1) 1 28649U 05017A 12137.19411936 .00003453 00000-0 42714-3 0 9132 2 28649 97.9086 210.8296 0001158 116.8206 243.1700 14.83411134380522 TOPSAT 1 28891U 05043B 12137.18028071 .00000181 00000-0 46848-4 0 3045 2 28891 97.9057 2.2728 0015684 250.6727 109.2757 14.60113610349102 SINAH 1 1 28893U 05043D 12136.67219639 .00000158 00000-0 41872-4 0 3778 2 28893 97.9138 3.9085 0014506 250.4070 109.5560 14.60359477349107 ALOS (DAICHI) 1 28931U 06002A 12137.23263464 .00000666 00000-0 14853-3 0 369 2 28931 98.0772 207.1681 0002152 73.4604 286.6868 14.59888869336111 EROS B 1 29079U 06014A 12137.14710807 .00009782 00000-0 45642-3 0 8012 2 29079 97.4452 255.4713 0004337 253.9150 228.0683 15.20043268336001 RSS-1 (YAOGAN 1) 1 29092U 06015A 12135.92667440 .00000498 00000-0 71316-4 0 1001 2 29092 97.9250 126.2150 0001392 72.9781 287.1590 14.80848696327000 RESURS-DK 1 1 29228U 06021A 12137.14018650 .00000147 00000-0 19788-4 0 6391 2 29228 69.9342 136.2840 0006881 294.2122 65.8327 14.99394259329300 ARIRANG 2 (KOMPSAT-2) 1 29268U 06031A 12137.18958096 .00000358 00000-0 81425-4 0 4419 2 29268 98.2648 28.3920 0016624 81.3864 278.9212 14.61752816309519 LAPAN-TUBSAT 1 29709U 07001A 12137.16236794 .00000306 00000-0 46202-4 0 9400 2 29709 97.6625 169.8461 0014760 57.5186 302.7461 14.80655103288890 CARTOSAT-2 (IRS-P7) 1 29710U 07001B 12137.19278485 .00000472 00000-0 71344-4 0 9159 2 29710 97.9076 197.0054 0001964 75.9677 284.1797 14.78662978288628 HAIYANG-1B 1 31113U 07010A 12137.12318753 .00000168 00000-0 81940-4 0 6630 2 31113 98.4125 198.1688 0013896 167.2979 192.8572 14.29686144265944 COSMO-SKYMED 1 1 31598U 07023A 12137.22214382 .00000661 00000-0 89552-4 0 4874 2 31598 97.8699 322.9072 0001435 86.9393 273.1982 14.82166547267238 TERRASAR-X 1 31698U 07026A 12136.96788792 .00001672 00000-0 82794-4 0 9902 2 31698 97.4447 144.1700 0001715 120.2259 298.2477 15.19150326272762 WORLDVIEW-1 (WV-1) 1 32060U 07041A 12137.14607188 .00005214 00000-0 21490-3 0 1928 2 32060 97.3325 214.2468 0001985 80.0944 7.1940 15.24508446259182 CBERS 2B 1 32062U 07042A 12137.22615428 .00000127 00000-0 54800-4 0 8293 2 32062 98.3817 210.4299 0032652 16.0213 344.2004 14.38810861244398 YAOGAN 3 1 32289U 07055A 12137.19274532 .00000267 00000-0 41270-4 0 9991 2 32289 97.8786 127.9100 0001134 67.3976 292.7358 14.80794679243727 COSMO-SKYMED 2 1 32376U 07059A 12137.18838333 .00000021 00000-0 91275-5 0 8961 2 32376 97.8699 322.8751 0001408 85.4623 274.6733 14.82167006239977 RADARSAT-2 1 32382U 07061A 12137.23492057 -.00000020 00000-0 89960-5 0 8841 2 32382 98.5760 144.7198 0001253 85.3785 333.6196 14.29983481230764 CARTOSAT-2A 1 32783U 08021A 12137.23943109 .00000437 00000-0 66618-4 0 4854 2 32783 97.9096 197.6145 0014606 202.2007 157.8583 14.78683175218578 IMS-1 1 32786U 08021D 12137.06885492 -.00009035 00000-0 -11853-2 0 9699 2 32786 97.8057 195.4774 0013289 168.1387 192.0276 14.80092375218757 JASON 2 (OSTM) 1 33105U 08032A 12136.80223077 -.00000050 00000-0 46041-4 0 2872 2 33105 66.0434 21.6997 0007908 271.6240 88.3871 12.80931486182577 RAPIDEYE 2 1 33312U 08040A 12137.14016458 .00000489 00000-0 71779-4 0 1490 2 33312 97.9191 226.2228 0010011 263.1288 96.8796 14.79862369200560 RAPIDEYE 5 1 33313U 08040B 12137.16557242 .00000395 00000-0 59189-4 0 1389 2 33313 97.9160 225.4360 0020214 131.5968 228.6995 14.79852989200512 RAPIDEYE 1 1 33314U 08040C 12137.15329718 .00000256 00000-0 40898-4 0 1882 2 33314 97.9172 226.2833 0022245 275.6305 84.2435 14.79853676200554 RAPIDEYE 3 1 33315U 08040D 12137.12433092 -.00000186 00000-0 -17764-4 0 1173 2 33315 97.9135 225.3467 0011793 200.3687 159.7082 14.79855820200516 RAPIDEYE 4 1 33316U 08040E 12137.17794464 -.00000250 00000-0 -26275-4 0 1126 2 33316 97.9127 225.2245 0013946 148.0241 212.1854 14.79854661200510 HJ-1A 1 33320U 08041A 12137.19506100 .00000781 00000-0 12521-3 0 788 2 33320 97.8663 206.6444 0026064 246.7701 113.0776 14.74217750198778 HJ-1B 1 33321U 08041B 12137.16025849 .00000769 00000-0 12298-3 0 1353 2 33321 97.8681 206.8476 0035925 264.9959 94.7170 14.74184557198758 GEOEYE 1 1 33331U 08042A 12137.21080795 .00000271 00000-0 60144-4 0 915 2 33331 98.1104 210.8168 0009329 339.1993 20.8848 14.64459448197202 THEOS 1 33396U 08049A 12137.25363256 .00000033 00000-0 35807-4 0 8836 2 33396 98.6973 204.6893 0000928 91.2050 340.6531 14.20029441187797 COSMO-SKYMED 3 1 33412U 08054A 12137.17572580 .00000330 00000-0 47914-4 0 9231 2 33412 97.8698 322.8619 0001484 85.5818 274.5531 14.82165701192436 YAOGAN 4 1 33446U 08061A 12137.24674630 -.00000556 00000-0 -76080-4 0 8353 2 33446 97.7904 201.7338 0016992 198.9863 161.0706 14.74503413186045 YAOGAN 5 1 33456U 08064A 12137.17396417 .00010845 00000-0 31502-3 0 8330 2 33456 97.2570 208.9273 0009034 204.1232 228.9004 15.35614452190555 YAOGAN 6 1 34839U 09021A 12137.18027280 .00006793 00000-0 28194-3 0 4370 2 34839 97.5425 225.9570 0001741 39.0399 18.1248 15.24177925170091 RAZAKSAT 1 35578U 09037A 12137.13458764 .00000849 00000-0 54039-4 0 1425 2 35578 8.9861 56.3461 0016654 182.5892 177.4259 14.65373941152314 DEIMOS-1 1 35681U 09041A 12137.16903332 .00000282 00000-0 55454-4 0 1012 2 35681 98.0365 36.6788 0001431 113.1376 246.9989 14.69711749150030 OCEANSAT 2 1 35931U 09051A 12137.17199909 .00006031 00000-0 15388-2 0 8317 2 35931 98.2762 233.3397 0002586 118.9953 241.1213 14.50876979140054 WORLDVIEW-2 1 35946U 09055A 12137.23749087 .00000061 00000-0 34668-4 0 8885 2 35946 98.4809 217.0610 0000854 159.2904 200.8339 14.37679118136542 SMOS 1 36036U 09059A 12137.03333264 -.00000044 00000-0 00000+0 0 7849 2 36036 98.4432 324.1830 0000906 88.8244 271.3072 14.39761759133247 YAOGAN 7 1 36110U 09069A 12137.10392689 -.00000382 00000-0 -49445-4 0 7046 2 36110 97.9596 270.9035 0025161 310.1391 49.7628 14.74494040131016 TANDEM-X 1 36605U 10030A 12136.96788792 .00000388 00000-0 21646-4 0 6172 2 36605 97.4459 144.1702 0001249 93.2233 325.2403 15.19149599105500 CARTOSAT 2B 1 36795U 10035A 12137.14676591 .00000616 00000-0 90916-4 0 771 2 36795 97.9103 199.3429 0014659 281.7878 78.1711 14.78705774 99603 YAOGAN 10 1 36834U 10038A 12137.16592219 .00000505 00000-0 72189-4 0 9693 2 36834 97.8338 137.9393 0001699 56.0540 304.0838 14.80759860 95473 COSMO-SKYMED 4 1 37216U 10060A 12137.13776166 .00000358 00000-0 51487-4 0 7170 2 37216 97.8697 322.8262 0001446 82.6778 277.4588 14.82167747 82519 SAC-D 1 37673U 11024A 12135.77497743 -.00000049 00000-0 00000-0 0 3037 2 37673 98.0091 142.9139 0001467 78.1375 282.0010 14.72346779 49908 RASAT 1 37791U 11044D 12137.17793113 .00000296 00000-0 66582-4 0 8541 2 37791 98.2301 215.6996 0021894 193.6454 166.4179 14.63408097 39903 MEGHA-TROPIQUES 1 37838U 11058A 12137.22894991 .00000264 00000-0 00000+0 0 1546 2 37838 19.9805 196.9719 0009661 208.2786 151.7094 14.09696630 30633 SRMSAT 1 37841U 11058D 12136.25022161 .00000264 00000-0 00000+0 0 1498 2 37841 19.9756 202.0107 0012083 191.3171 168.6963 14.10137204 30534 YAOGAN 13 1 37941U 11072A 12137.15909997 .00005996 00000-0 27167-3 0 5168 2 37941 97.1223 76.3499 0007883 57.3745 56.4406 15.21179162 25563 PLEIADES 1 1 38012U 11076F 12137.13237045 .00000310 00000-0 76589-4 0 4671 2 38012 98.1940 212.0319 0001305 77.7947 282.3412 14.58554927 22012 ZIYUAN 1-02C (ZY 1-02C) 1 38038U 11079A 12137.15683945 .00000092 00000-0 47523-4 0 4457 2 38038 98.5378 212.5488 0000785 100.0107 260.1080 14.35362017 20958 ZIYUAN 3 (ZY 3) 1 38046U 12001A 12137.12874193 .00005315 00000-0 24038-3 0 4027 2 38046 97.4744 211.5818 0008456 134.0327 313.2880 15.21319096 19469 RISAT 1 1 38248U 12017A 12137.13481035 .00001069 00000-0 71915-4 0 764 2 38248 97.5917 142.0625 0013501 255.7911 192.3881 15.08819798 3040